GW5656 Weather Reports


time (UTC)temp
C
wind
direction
speed
KPH
gust
KPH
rain 1hr
cm
rain 24hr
cm
rain mn
cm
humidity
%
barometer
mb
20260510031158 9 219 1.6 1.6 0.00 0.00 0.00 80 1015.2
20260510030652 9 227 1.6 3.2 0.00 0.00 0.00 78 1015.4
20260510030151 9 186 3.2 3.2 0.00 0.00 0.00 78 1015.2
20260510025648 9 207 3.2 3.2 0.00 0.00 0.00 79 1015.4
20260510025145 9 191 1.6 3.2 0.00 0.00 0.00 79 1015.3
20260510024642 10 201 1.6 3.2 0.00 0.00 0.00 78 1015.4
20260510024138 10 218 1.6 3.2 0.00 0.00 0.00 78 1015.2
20260510023634 10 199 3.2 3.2 0.00 0.00 0.00 78 1015.3
20260510023131 10 217 3.2 3.2 0.00 0.00 0.00 77 1015.1
20260510022631 10 188 1.6 3.2 0.00 0.00 0.00 76 1015.1
20260510022126 10 235 3.2 3.2 0.00 0.00 0.00 74 1014.8
20260510021622 10 219 3.2 4.8 0.00 0.00 0.00 74 1014.6
20260510021120 10 210 1.6 3.2 0.00 0.00 0.00 76 1014.8
20260510020613 11 219 1.6 3.2 0.00 0.00 0.00 75 1014.6
20260510020109 11 240 0.0 4.8 0.00 0.00 0.00 72 1014.7
20260510015605 12 257 3.2 4.8 0.00 0.00 0.00 71 1014.3
20260510015102 12 279 3.2 4.8 0.00 0.00 0.00 71 1014.3
20260510014557 12 233 0.0 3.2 0.00 0.00 0.00 68 1014.2
20260510014055 12 224 1.6 4.8 0.00 0.00 0.00 68 1014.0
20260510013549 12 203 3.2 3.2 0.00 0.00 0.00 68 1014.0
20260510013046 12 213 3.2 3.2 0.00 0.00 0.00 67 1014.0
20260510012539 12 195 1.6 3.2 0.00 0.00 0.00 67 1014.0
20260510012036 13 210 1.6 3.2 0.00 0.00 0.00 66 1013.9
20260510011535 13 200 1.6 3.2 0.00 0.00 0.00 66 1013.7
20260510011031 13 183 1.6 4.8 0.00 0.00 0.00 66 1013.7
20260510010528 13 196 0.0 3.2 0.00 0.00 0.00 66 1013.6
20260510010026 13 223 0.0 3.2 0.00 0.00 0.00 67 1013.4
20260510005521 15 97 3.2 3.2 0.00 0.00 0.00 65 1013.5
20260510005019 15 250 1.6 6.4 0.00 0.00 0.00 59 1013.2
20260510004516 16 299 4.8 11.3 0.00 0.00 0.00 63 1013.2
20260510004014 15 176 4.8 6.4 0.00 0.00 0.00 59 1013.2
20260510003510 15 116 3.2 4.8 0.00 0.00 0.00 63 1013.3
20260510003006 15 311 4.8 6.4 0.00 0.00 0.00 64 1013.1
20260510002502 15 186 3.2 3.2 0.00 0.00 0.00 61 1012.7
20260510001959 16 137 0.0 4.8 0.00 0.00 0.00 61 1012.6
20260510001456 16 233 0.0 1.6 0.00 0.00 0.00 54 1012.6
20260510000954 16 323 0.0 4.8 0.00 0.00 0.00 55 1012.4
20260510000449 17 105 0.0 3.2 0.00 0.00 0.00 53 1012.4
20260509235946 18 245 0.0 1.6 0.00 0.00 0.00 48 1012.2
20260509235443 18 6 0.0 0.0 0.00 0.00 0.00 51 1012.3
20260509234940 18 156 0.0 1.6 0.00 0.00 0.00 46 1012.3
20260509234436 19 263 0.0 4.8 0.00 0.00 0.00 46 1012.3
20260509233934 19 198 4.8 4.8 0.00 0.00 0.00 45 1012.2
20260509233432 20 251 3.2 4.8 0.00 0.00 0.00 44 1012.4
20260509232927 20 229 3.2 12.9 0.00 0.00 0.00 44 1012.5
20260509232425 20 194 4.8 4.8 0.00 0.00 0.00 43 1012.4
20260509231921 21 326 0.0 3.2 0.00 0.00 0.00 44 1012.4
20260509231418 21 304 1.6 3.2 0.00 0.00 0.00 44 1012.3
20260509230916 21 313 6.4 6.4 0.00 0.00 0.00 43 1012.4
20260509230412 20 328 6.4 9.7 0.00 0.00 0.00 42 1012.5
20260509225908 20 235 3.2 6.4 0.00 0.00 0.00 43 1012.4
20260509225405 20 320 4.8 6.4 0.00 0.00 0.00 43 1012.4
20260509224901 21 355 4.8 8.0 0.00 0.00 0.00 41 1012.3
20260509224357 21 345 8.0 11.3 0.00 0.00 0.00 41 1012.4
20260509223854 21 349 8.0 9.7 0.00 0.00 0.00 40 1012.3
20260509223351 21 336 6.4 6.4 0.00 0.00 0.00 40 1012.3
20260509222849 21 228 1.6 6.4 0.00 0.00 0.00 40 1012.4
20260509222348 21 339 4.8 9.7 0.00 0.00 0.00 40 1012.1
20260509221844 21 313 4.8 4.8 0.00 0.00 0.00 40 1012.1
20260509221342 21 328 8.0 9.7 0.00 0.00 0.00 41 1012.1
20260509220842 21 305 3.2 8.0 0.00 0.00 0.00 40 1012.1
20260509220339 21 294 3.2 4.8 0.00 0.00 0.00 39 1012.2
20260509215834 21 299 0.0 4.8 0.00 0.00 0.00 39 1011.9
20260509215331 21 340 4.8 6.4 0.00 0.00 0.00 39 1011.8
20260509214828 22 269 1.6 3.2 0.00 0.00 0.00 38 1012.0
20260509214325 21 285 4.8 4.8 0.00 0.00 0.00 41 1011.9
20260509213823 21 152 1.6 3.2 0.00 0.00 0.00 38 1012.0
20260509213318 21 280 3.2 4.8 0.00 0.00 0.00 38 1012.0
20260509212816 21 211 3.2 6.4 0.00 0.00 0.00 38 1011.8
20260509212313 21 208 3.2 11.3 0.00 0.00 0.00 37 1011.7
20260509211809 21 217 6.4 8.0 0.00 0.00 0.00 37 1011.7
20260509211305 21 251 1.6 8.0 0.00 0.00 0.00 37 1011.5
20260509210801 21 188 4.8 8.0 0.00 0.00 0.00 38 1011.5
20260509210259 22 346 3.2 6.4 0.00 0.00 0.00 37 1011.6
20260509205758 21 245 4.8 8.0 0.00 0.00 0.00 37 1011.5
20260509205253 22 197 11.3 11.3 0.00 0.00 0.00 37 1011.5
20260509204750 22 272 3.2 8.0 0.00 0.00 0.00 37 1011.3
20260509204246 22 173 1.6 19.3 0.00 0.00 0.00 37 1011.3
20260509203742 22 249 0.0 14.5 0.00 0.00 0.00 37 1011.3
20260509203241 22 186 8.0 14.5 0.00 0.00 0.00 36 1011.2
20260509202736 22 215 1.6 9.7 0.00 0.00 0.00 37 1011.4
20260509202232 22 245 4.8 9.7 0.00 0.00 0.00 35 1011.2
20260509201726 23 204 4.8 6.4 0.00 0.00 0.00 35 1011.2
20260509201223 21 301 8.0 9.7 0.00 0.00 0.00 36 1011.3
20260509200721 22 199 11.3 16.1 0.00 0.00 0.00 36 1011.5
20260509200221 22 223 6.4 9.7 0.00 0.00 0.00 35 1011.2
20260509195717 22 269 0.0 14.5 0.00 0.00 0.00 36 1011.1
20260509195213 22 215 8.0 12.9 0.00 0.00 0.00 35 1011.3
20260509194712 22 239 1.6 9.7 0.00 0.00 0.00 36 1011.4
20260509194209 22 199 8.0 9.7 0.00 0.00 0.00 34 1011.3
20260509193707 23 192 6.4 9.7 0.00 0.00 0.00 36 1011.3
20260509193206 23 232 3.2 20.9 0.00 0.00 0.00 35 1011.2
20260509192703 24 194 14.5 22.5 0.00 0.00 0.00 33 1011.3
20260509192158 23 170 3.2 11.3 0.00 0.00 0.00 36 1011.3
20260509191653 24 233 8.0 12.9 0.00 0.00 0.00 33 1011.7
20260509191150 24 198 16.1 19.3 0.00 0.00 0.00 35 1011.6
20260509190646 23 253 6.4 9.7 0.00 0.00 0.00 36 1011.6
20260509190143 23 207 4.8 20.9 0.00 0.00 0.00 37 1011.5
20260509185641 23 195 6.4 6.4 0.00 0.00 0.00 39 1011.6
20260509185137 23 202 6.4 9.7 0.00 0.00 0.00 39 1011.6
20260509184635 22 222 4.8 8.0 0.00 0.00 0.00 42 1011.7
20260509184131 21 308 4.8 9.7 0.00 0.00 0.00 45 1011.7
20260509183628 21 30 0.0 8.0 0.00 0.00 0.00 45 1011.8
20260509183123 20 333 3.2 8.0 0.00 0.00 0.00 46 1011.8
20260509182619 21 220 6.4 8.0 0.00 0.00 0.00 43 1011.9
20260509182116 22 205 6.4 11.3 0.00 0.00 0.00 45 1012.0
20260509181615 21 313 1.6 4.8 0.00 0.00 0.00 46 1012.0
20260509181112 20 332 4.8 8.0 0.00 0.00 0.00 48 1012.2
20260509180608 20 331 6.4 6.4 0.00 0.00 0.00 49 1012.4
20260509180105 21 354 3.2 6.4 0.00 0.00 0.00 48 1012.6
20260509175600 21 261 3.2 8.0 0.00 0.00 0.00 47 1012.6
20260509175058 18 332 3.2 9.7 0.00 0.00 0.00 53 1012.6
20260509174554 18 333 6.4 9.7 0.00 0.00 0.00 55 1012.6
20260509174049 17 357 6.4 17.7 0.00 0.00 0.00 55 1012.9
20260509173544 17 342 4.8 11.3 0.00 0.00 0.00 57 1012.7
20260509173041 17 347 6.4 11.3 0.00 0.00 0.00 56 1012.9
20260509172538 17 357 6.4 12.9 0.00 0.00 0.00 56 1013.2
20260509172033 17 313 8.0 8.0 0.00 0.00 0.00 58 1013.2
20260509171530 17 350 4.8 8.0 0.00 0.00 0.00 55 1013.1
20260509171026 18 349 9.7 11.3 0.00 0.00 0.00 56 1013.2
20260509170522 17 348 4.8 6.4 0.00 0.00 0.00 54 1013.1
20260509170018 17 357 3.2 8.0 0.00 0.00 0.00 57 1013.0
20260509165517 17 345 6.4 9.7 0.00 0.00 0.00 56 1012.9
20260509165012 18 83 0.0 1.6 0.00 0.00 0.00 57 1012.5
20260509164509 18 199 3.2 8.0 0.00 0.00 0.00 51 1012.9
20260509164004 19 287 1.6 6.4 0.00 0.00 0.00 50 1012.6
20260509163502 19 250 3.2 6.4 0.00 0.00 0.00 48 1012.7
20260509163001 19 184 3.2 6.4 0.00 0.00 0.00 48 1012.7
20260509162459 19 237 3.2 8.0 0.00 0.00 0.00 46 1012.6
20260509161955 20 234 3.2 6.4 0.00 0.00 0.00 45 1012.7
20260509161451 20 215 3.2 4.8 0.00 0.00 0.00 45 1012.7
20260509160947 20 210 6.4 9.7 0.00 0.00 0.00 46 1012.7
20260509160443 20 292 4.8 6.4 0.00 0.00 0.00 46 1012.7
20260509155939 20 213 4.8 12.9 0.00 0.00 0.00 47 1012.9
20260509155436 20 253 3.2 11.3 0.00 0.00 0.00 46 1012.6
20260509154932 20 290 1.6 4.8 0.00 0.00 0.00 47 1012.9
20260509154428 20 312 1.6 3.2 0.00 0.00 0.00 48 1012.9
20260509153926 19 339 3.2 3.2 0.00 0.00 0.00 50 1013.0
20260509153423 18 337 1.6 4.8 0.00 0.00 0.00 49 1013.2
20260509152920 18 233 3.2 6.4 0.00 0.00 0.00 48 1013.2
20260509152415 18 229 1.6 3.2 0.00 0.00 0.00 48 1013.0
20260509151913 18 203 3.2 9.7 0.00 0.00 0.00 48 1013.0
20260509151409 18 224 0.0 4.8 0.00 0.00 0.00 49 1013.1
20260509150907 18 163 3.2 4.8 0.00 0.00 0.00 49 1012.9
20260509150404 18 219 3.2 6.4 0.00 0.00 0.00 50 1012.9
20260509145903 18 180 4.8 6.4 0.00 0.00 0.00 51 1013.1
20260509145402 18 199 1.6 4.8 0.00 0.00 0.00 50 1013.4
20260509144858 18 233 3.2 8.0 0.00 0.00 0.00 49 1013.4
20260509144355 18 224 1.6 14.5 0.00 0.00 0.00 49 1013.1
20260509143852 18 158 4.8 9.7 0.00 0.00 0.00 49 1013.0
20260509143350 18 221 3.2 6.4 0.00 0.00 0.00 51 1013.2
20260509142846 18 250 4.8 12.9 0.00 0.00 0.00 52 1013.2
20260509142342 17 271 3.2 4.8 0.00 0.00 0.00 54 1013.1
20260509141838 17 181 3.2 6.4 0.00 0.00 0.00 56 1013.3
20260509141335 17 258 3.2 9.7 0.00 0.00 0.00 55 1013.4
20260509140831 17 242 4.8 12.9 0.00 0.00 0.00 54 1013.3
20260509140328 17 232 3.2 6.4 0.00 0.00 0.00 56 1013.4
20260509135827 17 185 4.8 14.5 0.00 0.00 0.00 57 1013.9
20260509135324 16 199 11.3 11.3 0.00 0.00 0.00 58 1013.8
20260509134821 16 192 11.3 16.1 0.00 0.00 0.00 59 1013.8
20260509134318 16 216 4.8 8.0 0.00 0.00 0.00 57 1013.9
20260509133815 15 221 4.8 14.5 0.00 0.00 0.00 59 1014.0
20260509133311 15 208 6.4 11.3 0.00 0.00 0.00 60 1014.1
20260509132810 15 230 6.4 9.7 0.00 0.00 0.00 60 1014.0
20260509132309 15 175 3.2 4.8 0.00 0.00 0.00 62 1014.3
20260509131805 15 201 4.8 4.8 0.00 0.00 0.00 62 1014.4
20260509131302 14 195 6.4 8.0 0.00 0.00 0.00 61 1014.2
20260509130758 13 214 3.2 6.4 0.00 0.00 0.00 62 1014.3
20260509130254 13 210 1.6 9.7 0.00 0.00 0.00 63 1014.3
20260509125750 13 209 1.6 6.4 0.00 0.00 0.00 63 1014.5
20260509125247 13 177 6.4 6.4 0.00 0.00 0.00 63 1014.0
20260509124744 12 191 0.0 6.4 0.00 0.00 0.00 64 1014.2
20260509124240 12 228 3.2 3.2 0.00 0.00 0.00 65 1014.1
20260509123738 12 241 0.0 3.2 0.00 0.00 0.00 65 1014.0
20260509123235 12 238 0.0 1.6 0.00 0.00 0.00 66 1014.0
20260509122731 11 287 3.2 3.2 0.00 0.00 0.00 67 1014.0
20260509122227 11 285 3.2 4.8 0.00 0.00 0.00 67 1014.1
20260509121724 11 337 0.0 4.8 0.00 0.00 0.00 69 1014.3
20260509121222 11 258 0.0 3.2 0.00 0.00 0.00 67 1014.3
20260509120721 11 203 3.2 4.8 0.00 0.00 0.00 67 1014.3
20260509120218 11 254 1.6 1.6 0.00 0.00 0.00 69 1014.5
20260509115715 10 265 0.0 3.2 0.00 0.00 0.00 71 1014.2
20260509115213 10 338 3.2 4.8 0.00 0.00 0.00 71 1014.4
20260509114711 10 215 1.6 4.8 0.00 0.00 0.00 71 1014.5
20260509114209 10 230 0.0 4.8 0.00 0.00 0.00 70 1014.3
20260509113708 10 261 1.6 3.2 0.00 0.00 0.00 71 1014.5
20260509113204 10 285 1.6 4.8 0.00 0.00 0.00 70 1014.5
20260509112701 10 300 3.2 3.2 0.00 0.00 0.00 73 1014.5
20260509112158 9 199 3.2 3.2 0.00 0.00 0.00 77 1014.3
20260509111655 9 230 3.2 4.8 0.00 0.00 0.00 74 1014.3
20260509111152 9 212 1.6 3.2 0.00 0.00 0.00 71 1014.3
20260509110649 8 269 0.0 3.2 0.00 0.00 0.00 76 1014.3
20260509110146 8 157 0.0 3.2 0.00 0.00 0.00 76 1014.4
20260509105644 8 206 0.0 1.6 0.00 0.00 0.00 78 1014.3
20260509105141 8 223 3.2 3.2 0.00 0.00 0.00 79 1014.5
20260509104638 8 225 1.6 4.8 0.00 0.00 0.00 78 1014.3
20260509104135 8 190 3.2 3.2 0.00 0.00 0.00 79 1014.3
20260509103633 8 207 4.8 4.8 0.00 0.00 0.00 78 1014.3
20260509103131 8 224 3.2 3.2 0.00 0.00 0.00 72 1014.2
20260509102628 8 13 0.0 3.2 0.00 0.00 0.00 75 1014.3
20260509102125 8 304 3.2 3.2 0.00 0.00 0.00 74 1014.4
20260509101621 8 145 0.0 3.2 0.00 0.00 0.00 77 1014.3
20260509101117 8 269 0.0 3.2 0.00 0.00 0.00 76 1014.5
20260509100614 8 254 0.0 3.2 0.00 0.00 0.00 76 1014.2
20260509100112 8 242 1.6 4.8 0.00 0.00 0.00 75 1014.2
20260509095608 8 349 0.0 3.2 0.00 0.00 0.00 74 1014.2
20260509095106 8 189 1.6 3.2 0.00 0.00 0.00 77 1014.4
20260509094602 8 339 0.0 4.8 0.00 0.00 0.00 76 1014.4
20260509094100 8 0 0.0 3.2 0.00 0.00 0.00 77 1014.2
20260509093558 8 333 0.0 4.8 0.00 0.00 0.00 78 1014.2
20260509093055 8 317 3.2 4.8 0.00 0.00 0.00 78 1014.4
20260509092553 8 265 0.0 3.2 0.00 0.00 0.00 79 1014.6
20260509092051 8 296 0.0 3.2 0.00 0.00 0.00 80 1014.3
20260509091548 8 271 0.0 4.8 0.00 0.00 0.00 77 1014.5
20260509091045 8 203 3.2 3.2 0.00 0.00 0.00 81 1014.6
20260509090542 8 256 0.0 3.2 0.00 0.00 0.00 80 1014.6
20260509090040 8 296 0.0 3.2 0.00 0.00 0.00 80 1014.5
20260509085537 8 310 1.6 8.0 0.00 0.00 0.00 80 1014.6
20260509085033 9 202 0.0 3.2 0.00 0.00 0.00 74 1014.4
20260509084530 8 193 1.6 6.4 0.00 0.00 0.00 74 1014.5
20260509084027 8 214 3.2 4.8 0.00 0.00 0.00 77 1014.5
20260509083525 8 226 1.6 3.2 0.00 0.00 0.00 72 1014.5
20260509083021 8 106 1.6 4.8 0.00 0.00 0.00 75 1014.6
20260509082519 8 230 1.6 3.2 0.00 0.00 0.00 77 1014.9
20260509082015 8 275 1.6 3.2 0.00 0.00 0.00 79 1014.8
20260509081513 8 297 1.6 3.2 0.00 0.00 0.00 80 1014.7
20260509081009 8 229 0.0 1.6 0.00 0.00 0.00 80 1014.9
20260509080508 8 226 1.6 3.2 0.00 0.00 0.00 78 1014.6
20260509080005 8 258 1.6 3.2 0.00 0.00 0.00 76 1014.7
20260509075502 8 213 1.6 3.2 0.00 0.00 0.00 77 1014.5
20260509075000 7 207 0.0 3.2 0.00 0.00 0.00 79 1014.9
20260509074457 7 240 1.6 3.2 0.00 0.00 0.00 80 1014.7
20260509073953 7 228 3.2 3.2 0.00 0.00 0.00 77 1014.7
20260509073450 7 201 1.6 3.2 0.00 0.00 0.00 78 1014.9
20260509072946 7 238 1.6 3.2 0.00 0.00 0.00 76 1014.8
20260509072443 7 214 1.6 3.2 0.00 0.00 0.00 78 1015.1
20260509071940 7 222 3.2 3.2 0.00 0.00 0.00 80 1015.2
20260509071436 7 213 3.2 3.2 0.00 0.00 0.00 78 1015.2
20260509070935 7 212 3.2 3.2 0.00 0.00 0.00 79 1015.1
20260509070431 7 217 3.2 3.2 0.00 0.00 0.00 79 1015.3
20260509065927 7 180 0.0 4.8 0.00 0.00 0.00 79 1015.3
20260509065423 7 217 3.2 4.8 0.00 0.00 0.00 79 1015.3
20260509064919 6 181 1.6 3.2 0.00 0.00 0.00 81 1015.3
20260509064417 6 186 1.6 3.2 0.00 0.00 0.00 82 1015.5
20260509063914 6 195 3.2 4.8 0.00 0.00 0.00 80 1015.2
20260509063409 6 187 3.2 3.2 0.00 0.00 0.00 81 1015.4
20260509062907 6 178 1.6 3.2 0.00 0.00 0.00 80 1015.3
20260509062404 6 191 1.6 3.2 0.00 0.00 0.00 80 1015.5
20260509061901 6 207 3.2 4.8 0.00 0.00 0.00 80 1015.5
20260509061359 6 174 3.2 3.2 0.00 0.00 0.00 81 1015.5
20260509060855 6 196 1.6 3.2 0.00 0.00 0.00 81 1015.3
20260509060353 6 170 3.2 3.2 0.00 0.00 0.00 81 1015.6
20260509055853 6 196 3.2 3.2 0.00 0.00 0.00 81 1015.7
20260509055349 6 169 1.6 4.8 0.00 0.00 0.00 81 1015.5
20260509054847 6 205 3.2 4.8 0.00 0.00 0.00 79 1015.5
20260509054343 6 194 1.6 3.2 0.00 0.00 0.00 79 1016.0
20260509053842 6 188 3.2 3.2 0.00 0.00 0.00 80 1015.8
20260509053338 6 185 3.2 4.8 0.00 0.00 0.00 79 1015.9
20260509052837 7 192 3.2 4.8 0.00 0.00 0.00 80 1015.7
20260509052334 7 207 4.8 4.8 0.00 0.00 0.00 77 1016.0
20260509051832 7 207 3.2 4.8 0.00 0.00 0.00 75 1015.8
20260509051330 7 195 3.2 4.8 0.00 0.00 0.00 76 1015.8
20260509050826 7 184 3.2 4.8 0.00 0.00 0.00 77 1015.8
20260509050323 7 205 3.2 4.8 0.00 0.00 0.00 77 1015.6
20260509045820 7 206 3.2 3.2 0.00 0.00 0.00 77 1015.6
20260509045317 7 180 1.6 3.2 0.00 0.00 0.00 77 1015.6
20260509044814 7 211 1.6 3.2 0.00 0.00 0.00 76 1015.9
20260509044311 7 210 0.0 3.2 0.00 0.00 0.00 76 1015.9
20260509043808 7 231 3.2 4.8 0.00 0.00 0.00 75 1016.0
20260509043303 7 217 3.2 4.8 0.00 0.00 0.00 75 1015.8
20260509042800 8 201 3.2 4.8 0.00 0.00 0.00 73 1015.7
20260509042256 8 183 3.2 3.2 0.00 0.00 0.00 74 1015.7
20260509041753 8 187 3.2 4.8 0.00 0.00 0.00 73 1015.7
20260509041250 8 194 3.2 4.8 0.00 0.00 0.00 75 1015.7
20260509040749 8 219 1.6 4.8 0.00 0.00 0.00 73 1015.7
20260509040245 8 209 3.2 4.8 0.00 0.00 0.00 73 1015.6
20260509035742 8 194 1.6 4.8 0.00 0.00 0.00 71 1015.4
20260509035239 8 191 3.2 3.2 0.00 0.00 0.00 71 1015.6
20260509034736 8 191 3.2 6.4 0.00 0.00 0.00 70 1015.5
20260509034233 8 175 3.2 3.2 0.00 0.00 0.00 72 1015.5
20260509033730 8 198 3.2 4.8 0.00 0.00 0.00 71 1015.5
20260509033227 8 189 3.2 3.2 0.00 0.00 0.00 70 1015.6
20260509032724 8 196 3.2 3.2 0.00 0.00 0.00 71 1015.6
20260509032221 8 208 4.8 4.8 0.00 0.00 0.00 71 1015.6
20260509031719 8 269 0.0 3.2 0.00 0.00 0.00 68 1015.6
20260509031216 8 213 1.6 3.2 0.00 0.00 0.00 67 1015.7